www.pogodaiklimat.ru

Погода и климат >> Архив погоды >> Бельгия >> Ernage


ПОГОДА в Ernage

  • Прогноз погоды в Ernage
  • Монитор погоды в Ernage
  • Климат города

АРХИВ ПОГОДЫ в Ernage

Время (UTC), дата Ветер
(напр.,м/с)
 
Видим.   Явления Облачность Т
(С)
Тd
(С)
f
(%)
Тe
(С)
Тes
(С)
Комфортность P
(гПа)
Po
(гПа)
Тmin
(С)
Tmax
(С)
R
(мм)
R24
(мм)
S
(см)
01 16.06 Ю 1 н/о н/о +11.7 +11.1 96 +11 +11 1017.1 997.8
02 16.06 ЮЗ 1 н/о н/о +10.7 +10.2 97 +10 +10 1017.1 997.8
03 16.06 ЮЗ 1 н/о н/о +11.0 +10.7 98 +11 +11 1016.8 997.4
04 16.06 ЮЗ 2
{3}
н/о н/о +11.0 +10.7 98 +10 +10 1016.7 997.3
05 16.06 ЮЗ 1
{3}
н/о н/о +12.3 +11.9 97 +12 +12 1016.7 997.5
06 16.06 ЮЗ 2
{3}
н/о н/о +13.2 +11.9 92 +12 +12 1016.7 997.5 +10.5
07 16.06 ЮЗ 1
{4}
н/о н/о +14.0 +11.9 87 +14 +14 1016.7 997.5
08 16.06 Ю 2
{3}
н/о н/о +17.3 +11.4 68 +18 +18 1016.1 997.2
09 16.06 ЮЗ 3
{4}
н/о н/о +17.2 +12.2 72 +17 +17 1016.5 997.6
10 16.06 З 4
{6}
н/о н/о +18.0 +11.3 65 +18 +18 1016.7 997.8
11 16.06 ЮЗ 3
{6}
н/о н/о +19.3 +9.0 51 +20 +20 1016.0 997.2
12 16.06 ЮЗ 4
{7}
н/о н/о +20.6 +9.5 49 +22 +22 комфорт 1015.7 997.0
13 16.06 З 5
{7}
н/о н/о +19.9 +10.9 56 +21 +21 комфорт 1015.4 996.7
14 16.06 З 5
{7}
н/о н/о +19.6 +11.4 59 +21 +21 комфорт 1015.3 996.6
15 16.06 З 5
{9}
н/о н/о +18.8 +11.5 63 +19 +19 1015.6 996.8
16 16.06 ЮЗ 6
{9}
н/о н/о +20.0 +11.7 59 +21 +21 комфорт 1015.6 996.8
17 16.06 ЮЗ 6
{10}
н/о н/о +19.0 +10.7 59 +19 +19 1015.8 996.9
18 16.06 З 4
{10}
н/о н/о +18.3 +10.6 61 +18 +18 1016.1 997.3 +21.1
19 16.06 З 4
{7}
н/о н/о +17.1 +9.7 62 +17 +17 1016.5 997.5
20 16.06 З 3
{5}
н/о н/о +15.0 +10.2 73 +14 +14 1016.7 997.7
21 16.06 З 3 н/о н/о +13.3 +9.6 78 +12 +12 1017.2 998.0
22 16.06 ЮЗ 2 н/о н/о +12.6 +9.6 82 +12 +12 1017.6 998.4
23 16.06 ЮЗ 2 н/о н/о +13.0 +9.8 81 +12 +12 1017.5 998.3
00 17.06 Ю 2 н/о н/о +14.0 +10.0 77 +14 +14 1017.0 997.9 168
01 17.06 ЮЗ 2 н/о н/о +13.8 +10.4 80 +13 +13 1017.4 998.3
02 17.06 ЮЗ 3 н/о н/о +13.7 +10.3 80 +13 +13 1017.3 998.1
03 17.06 ЮЗ 3 н/о н/о +13.4 +10.3 81 +12 +12 1017.7 998.5
04 17.06 ЮЗ 3
{6}
н/о н/о +13.4 +11.0 85 +12 +12 1017.8 998.6
05 17.06 ЮЗ 4
{7}
н/о н/о +13.1 +11.1 88 +11 +11 1018.0 998.7
06 17.06 ЮЗ 4
{7}
н/о н/о +14.0 +11.0 82 +13 +13 1017.8 998.6 +12.2
07 17.06 ЮЗ 5
{8}
н/о н/о +14.1 +10.2 77 +12 +12 1018.5 999.3
08 17.06 ЮЗ 5
{9}
н/о н/о +14.8 +9.7 71 +13 +13 1019.1 999.9
09 17.06 ЮЗ 5 н/о н/о +15.1 +9.5 69 +14 +14 1019.0 999.9 111
10 17.06 ЮЗ 6 н/о н/о +15.4 +8.9 65 +14 +14 1019.0 999.9 112
11 17.06 ЮЗ 6 н/о н/о +15.3 +9.1 66 +14 +14 1019.4 1000.3 91
12 17.06 ЮЗ 6 н/о н/о +15.0 +8.5 65 +13 +13 1019.5 1000.4 84
13 17.06 ЮЗ 6 н/о н/о +15.5 +9.4 67 +14 +14 1019.9 1000.8 89
14 17.06 ЮЗ 5 н/о н/о +16.7 +10.3 66 +16 +16 1019.9 1000.9 103
15 17.06 ЮЗ 5 н/о н/о +16.8 +10.2 65 +16 +16 1019.7 1000.7 98
16 17.06 ЮЗ 6 н/о н/о +17.7 +10.2 61 +17 +17 1019.7 1000.8 95
17 17.06 ЮЗ 5 н/о н/о +17.3 +9.9 62 +17 +17 1019.8 1000.8 89
18 17.06 ЮЗ 5 н/о н/о +17.0 +9.5 61 +16 +16 1020.0 1001.0 +18.3 45
19 17.06 ЮЗ 4 н/о н/о +16.1 +9.4 64 +15 +15 1020.3 1001.3 24
20 17.06 ЮЗ 2 н/о н/о +15.2 +9.8 70 +15 +15 1020.7 1001.5 5
21 17.06 ЮЗ 2 н/о н/о +15.0 +10.5 74 +15 +15 1021.0 1001.9
22 17.06 Ю 2 н/о н/о +15.2 +10.8 75 +15 +15 1020.9 1001.8
23 17.06 Ю 2 н/о н/о +15.1 +11.3 78 +15 +15 1020.9 1001.7
00 18.06 Ю 2 н/о н/о +15.2 +11.6 79 +15 +15 1020.7 1001.6 117
01 18.06 Ю 2 н/о н/о +15.0 +11.1 77 +15 +15 1020.5 1001.4
02 18.06 Ю 2 н/о н/о +14.5 +11.2 81 +14 +14 1020.4 1001.3
03 18.06 Ю 3 н/о н/о +15.0 +11.1 77 +14 +14 1020.4 1001.2
04 18.06 Ю 3 н/о н/о +14.9 +11.2 79 +14 +14 1020.5 1001.4
05 18.06 ЮЗ 3
{5}
н/о н/о +15.5 +11.9 79 +15 +15 1020.7 1001.6
06 18.06 ЮЗ 4
{6}
н/о н/о +16.3 +12.4 78 +16 +16 1020.7 1001.6 +14.5
07 18.06 ЮЗ 5
{8}
н/о н/о +17.4 +13.3 77 +17 +17 1020.8 1001.8
08 18.06 ЮЗ 5
{8}
н/о н/о +17.6 +14.4 82 +17 +17 1021.1 1002.1
09 18.06 ЮЗ 6
{9}
н/о н/о +16.8 +14.7 87 +16 +16 1021.4 1002.4
10 18.06 ЮЗ 5
{8}
н/о н/о +17.7 +15.5 87 +17 +17 1021.4 1002.5
11 18.06 ЮЗ 5
{9}
н/о н/о +19.5 +15.9 80 +21 +21 комфорт 1021.4 1002.6
12 18.06 ЮЗ 6
{10}
н/о н/о +18.1 +15.6 85 +18 +18 1021.7 1002.8 0.1
13 18.06 ЮЗ 6
{11}
н/о н/о +18.7 +15.4 81 +19 +19 1021.7 1002.8
14 18.06 ЮЗ 8
{12}
н/о н/о +20.5 +14.7 69 +23 +23 комфорт 1021.6 1002.8
15 18.06 З 7
{13}
н/о н/о +20.1 +14.3 69 +22 +22 комфорт 1021.6 1002.8
16 18.06 З 7
{11}
н/о н/о +20.0 +13.8 67 +22 +22 комфорт 1021.3 1002.5
17 18.06 ЮЗ 7
{11}
н/о н/о +19.3 +13.1 67 +20 +20 1021.3 1002.4
18 18.06 ЮЗ 5
{13}
н/о н/о +19.4 +13.5 69 +21 +21 комфорт 1021.6 1002.7 +20.9 0.1
19 18.06 З 5
{10}
н/о н/о +18.3 +12.5 69 +18 +18 1021.8 1002.9
20 18.06 ЮЗ 3
{9}
н/о н/о +16.8 +12.4 75 +17 +17 1022.1 1003.1
21 18.06 ЮЗ 3 н/о н/о +15.4 +12.2 81 +15 +15 1022.8 1003.7
22 18.06 З 4 н/о н/о +13.9 +12.1 89 +12 +12 1023.3 1004.0
23 18.06 ЮЗ 5 н/о н/о +14.2 +11.6 84 +12 +12 1023.2 1004.0
00 19.06 ЮЗ 4 н/о н/о +13.6 +11.7 88 +12 +12 1023.2 1003.9 142
01 19.06 ЮЗ 4 н/о н/о +13.3 +11.9 91 +12 +12 1023.2 1003.9
02 19.06 ЮЗ 4 н/о н/о +13.8 +13.0 95 +12 +12 1023.3 1004.1
03 19.06 ЮЗ 3 н/о н/о +14.6 +13.7 94 +14 +14 1023.5 1004.3
04 19.06 ЮЗ 3 н/о н/о +15.0 +14.2 95 +14 +14 1023.9 1004.7
05 19.06 ЮЗ 4
{6}
н/о н/о +15.5 +14.6 94 +14 +14 1024.1 1004.9
06 19.06 ЮЗ 4
{7}
н/о н/о +16.0 +14.8 93 +15 +15 1024.3 1005.2 +13.3
07 19.06 ЮЗ 4 н/о н/о +16.6 +15.1 91 +16 +16 1024.8 1005.7 22
08 19.06 ЮЗ 4 н/о н/о +16.4 +15.7 96 +16 +16 1025.0 1005.9 33
09 19.06 ЮЗ 3 н/о н/о +16.6 +15.8 95 +16 +16 1025.1 1006.1 30
10 19.06 ЮЗ 5 н/о н/о +18.3 +15.4 83 +18 +18 1025.2 1006.2 108
11 19.06 ЮЗ 4 н/о н/о +18.9 +15.5 81 +20 +20 1025.1 1006.2 90
12 19.06 ЮЗ 5 н/о н/о +18.8 +15.2 80 +20 +20 1025.5 1006.5 80
13 19.06 ЮЗ 4 н/о н/о +19.1 +15.3 79 +20 +20 1025.5 1006.5 103
14 19.06 ЮЗ 4 н/о н/о +19.0 +15.3 79 +20 +20 1025.5 1006.5 79
15 19.06 ЮЗ 3 н/о н/о +19.7 +15.6 77 +22 +22 комфорт 1025.2 1006.3 80
16 19.06 ЮЗ 3 н/о н/о +19.8 +15.5 76 +22 +22 комфорт 1024.8 1005.9 58
17 19.06 ЮЗ 4 н/о н/о +19.6 +15.6 78 +22 +22 комфорт 1024.8 1005.9 47
18 19.06 ЮЗ 2 н/о н/о +19.3 +15.8 80 +22 +22 комфорт 1024.6 1005.7 +20.0 21
19 19.06 ЮЗ 2 н/о н/о +19.0 +15.9 82 +21 +21 комфорт 1024.5 1005.6 6
20 19.06 ЮЗ 2 н/о н/о +18.3 +15.9 86 +19 +19 1024.7 1005.7 1
21 19.06 ЮЗ 2 н/о н/о +17.8 +16.1 90 +18 +18 1024.9 1005.9
22 19.06 З 2 н/о н/о +17.5 +16.1 91 +18 +18 1025.0 1005.9
23 19.06 З 2 н/о н/о +17.2 +15.9 92 +18 +18 1025.0 1005.9
00 20.06 З 2 н/о н/о +16.8 +15.6 93 +17 +17 1024.7 1005.6 78
01 20.06 ЮЗ 2 н/о н/о +15.9 +14.9 94 +16 +16 1024.3 1005.2
02 20.06 ЮЗ 1 н/о н/о +16.0 +15.2 95 +17 +17 1024.1 1005.0
03 20.06 Ю 1 н/о н/о +15.8 +14.7 93 +16 +16 1023.6 1004.5
04 20.06 Ю 2
{4}
н/о н/о +16.1 +14.9 93 +16 +16 1023.6 1004.5
05 20.06 ЮЗ 2
{3}
н/о н/о +16.8 +15.5 92 +17 +17 1023.3 1004.3
06 20.06 ЮЗ 4
{6}
н/о н/о +17.8 +14.5 81 +18 +18 1023.1 1004.1 +15.8
07 20.06 ЮЗ 4
{6}
н/о н/о +18.3 +14.4 78 +19 +19 1023.1 1004.1
08 20.06 ЮЗ 4
{7}
н/о н/о +20.1 +15.3 74 +23 +23 комфорт 1023.0 1004.1
09 20.06 ЮЗ 4
{7}
н/о н/о +20.6 +15.2 71 +24 +24 комфорт 1022.8 1004.0
10 20.06 З 4
{7}
н/о н/о +22.1 +15.9 68 +26 +26 душно 1022.5 1003.8
11 20.06 ЮЗ 4
{7}
н/о н/о +23.0 +14.7 60 +27 +27 душно 1022.1 1003.4
12 20.06 ЮЗ 4
{8}
н/о н/о +24.4 +14.5 54 +27 +27 жарко 1021.5 1002.9 0.1
13 20.06 ЮЗ 4
{7}
н/о н/о +25.4 +15.3 54 +28 +28 жарко 1020.7 1002.2
14 20.06 ЮЗ 4
{8}
н/о н/о +26.1 +13.9 47 +28 +28 жарко 1020.3 1001.9
15 20.06 З 3
{8}
н/о н/о +26.5 +15.5 51 +30 +30 душно 1019.9 1001.5
16 20.06 З 4
{7}
н/о н/о +25.9 +14.8 50 +28 +28 жарко 1019.4 1001.0
17 20.06 З 4
{7}
н/о н/о +25.3 +13.9 49 +28 +28 жарко 1019.2 1000.8
18 20.06 З 4
{8}
н/о н/о +24.3 +13.6 51 +27 +27 жарко 1018.9 1000.4 +26.3 0.1
19 20.06 З 3
{6}
н/о н/о +22.6 +14.3 59 +26 +26 жарко 1018.8 1000.2
20 20.06 З 2
{4}
н/о н/о +19.3 +14.7 75 +21 +21 комфорт 1019.1 1000.3
21 20.06 ЮЗ 2
{6}
н/о н/о +17.1 +13.9 81 +17 +17 1019.4 1000.4
22 20.06 ЮЗ 3
{5}
н/о н/о +17.0 +14.0 82 +17 +17 1018.9 999.9
23 20.06 ЮЗ 3
{4}
н/о н/о +15.6 +13.3 86 +15 +15 1019.0 999.9
00 21.06 З 3 н/о н/о +14.8 +13.3 91 +14 +14 1018.9 999.8 235
01 21.06 ЮЗ 3 н/о н/о +15.4 +13.0 86 +15 +15 1018.3 999.2
02 21.06 ЮЗ 4 н/о н/о +15.2 +13.5 90 +14 +14 1017.8 998.7
03 21.06 ЮЗ 3 н/о н/о +14.3 +13.5 95 +13 +13 1017.7 998.5
04 21.06 З 5 н/о н/о +15.0 +14.4 96 +13 +13 1017.6 998.6
05 21.06 З 4
{8}
н/о н/о +14.7 +14.2 97 +13 +13 1018.1 999.0
06 21.06 З 4 н/о н/о +14.8 +14.5 98 +13 +13 1018.5 999.5 +14.0 5
07 21.06 СЗ 7 н/о н/о +15.3 +13.7 90 +13 +13 1019.3 1000.2 19
08 21.06 СЗ 7 н/о н/о +14.9 +11.0 77 +13 +13 1020.4 1001.3 55
09 21.06 СЗ 8 н/о н/о +15.5 +8.5 63 +14 +14 1021.4 1002.3 132
10 21.06 СЗ 7 н/о н/о +16.2 +6.6 53 +15 +15 1021.7 1002.6 193
11 21.06 СЗ 6 н/о н/о +16.9 +6.7 51 +16 +16 1021.9 1002.8 223
12 21.06 СЗ 7 н/о н/о +17.6 +5.0 43 +17 +17 1022.3 1003.3 247
13 21.06 СЗ 7 н/о н/о +16.9 +4.5 44 +16 +16 1023.1 1004.0 232
14 21.06 СЗ 8 н/о н/о +15.8 +5.6 51 +14 +14 1023.9 1004.7 180
15 21.06 СЗ 8 н/о н/о +15.6 +4.4 47 +14 +14 1024.7 1005.5 163
16 21.06 СЗ 7 н/о н/о +14.1 +4.2 51 +12 +12 1025.4 1006.1 132
17 21.06 С 8 н/о н/о +14.6 +5.7 55 +13 +13 1025.7 1006.4 94
18 21.06 СЗ 5 н/о н/о +13.1 +6.7 65 +11 +11 1026.2 1006.8 +18.2 56
19 21.06 СЗ 7 н/о н/о +12.5 +5.5 62 +10 +10 1026.7 1007.3 22
20 21.06 СЗ 7 н/о н/о +11.2 +4.1 62 +8 +8 1027.1 1007.5 5
21 21.06 СЗ 3 н/о н/о +9.3 +5.3 76 +7 +7 1027.7 1008.0
22 21.06 СЗ 4 н/о н/о +8.8 +5.7 81 +6 +6 1028.1 1008.3
23 21.06 СЗ 3 н/о н/о +7.2 +5.1 86 +4 +4 1028.1 1008.2
00 22.06 З 2 н/о н/о +6.2 +4.9 91 +4 +4 1028.0 1008.1 176
01 22.06 З 2 н/о н/о +6.0 +5.2 95 +3 +3 1028.1 1008.2
02 22.06 З 2 н/о н/о +5.5 +4.8 95 +3 +3 1028.0 1008.0
03 22.06 З 3 н/о н/о +5.6 +4.9 95 +2 +2 1027.9 1008.0
04 22.06 З 3 н/о н/о +5.5 +4.9 96 +2 +2 1028.2 1008.2
05 22.06 З 3
{5}
н/о н/о +8.7 +7.0 89 +6 +6 1028.0 1008.3
06 22.06 З 4
{6}
н/о н/о +10.5 +6.9 78 +8 +8 1027.8 1008.2 +5.3
07 22.06 З 6
{9}
н/о н/о +13.2 +8.5 73 +11 +11 1027.9 1008.5
08 22.06 СЗ 6
{9}
н/о н/о +14.5 +9.2 70 +13 +13 1027.8 1008.5
09 22.06 СЗ 6
{12}
н/о н/о +15.2 +7.1 58 +14 +14 1028.0 1008.7
10 22.06 СЗ 7
{11}
н/о н/о +16.0 +3.7 44 +15 +15 1027.7 1008.5
11 22.06 СЗ 7
{12}
н/о н/о +17.0 +3.6 41 +16 +16 1027.9 1008.7
12 22.06 СЗ 6
{12}
н/о н/о +16.4 +5.6 49 +15 +15 1028.1 1008.9 0.2
13 22.06 СЗ 8
{12}
н/о н/о +15.7 +5.3 50 +14 +14 1028.3 1009.0
14 22.06 СЗ 6
{11}
н/о н/о +16.2 +6.6 53 +15 +15 1028.3 1009.1
15 22.06 СЗ 6
{12}
н/о н/о +17.0 +8.2 56 +16 +16 1028.5 1009.3
16 22.06 С 7
{11}
н/о н/о +15.8 +7.1 56 +14 +14 1028.7 1009.4
17 22.06 С 5
{8}
н/о н/о +14.6 +7.3 62 +13 +13 1028.8 1009.4
18 22.06 С 5
{12}
н/о н/о +13.5 +7.2 66 +12 +12 1029.0 1009.6 +17.1 0.2
19 22.06 С 4
{6}
н/о н/о +12.9 +7.9 72 +11 +11 1029.2 1009.8
20 22.06 С 3
{6}
н/о н/о +10.8 +7.6 81 +9 +9 1029.5 1009.9
21 22.06 СЗ 4
{6}
н/о н/о +10.7 +8.1 84 +8 +8 1029.8 1010.1
22 22.06 СЗ 3
{5}
н/о н/о +10.9 +8.4 85 +9 +9 1029.9 1010.3
23 22.06 СЗ 3
{5}
н/о н/о +10.8 +8.1 83 +9 +9 1030.1 1010.5
00 23.06 СЗ 3 н/о н/о +8.5 +6.7 88 +6 +6 1030.1 1010.3 179
01 23.06 З 2 н/о н/о +6.7 +5.6 93 +4 +4 1029.7 1009.8

 

Местоположение метеостанции Ernage (Бельгия): широта 50.67 долгота 4.68 высота над уровнем моря 158 м.

В архиве по умолчанию представлена погода в Ernage за последнюю неделю. Архивные данные за месяц целиком и за предыдущие месяцы, начиная с января 2011 года, Вы можете получить, выбрав интересующий диапазон дат из раскрывающегося списка и нажав кнопку "Ввод!".


*Определитесь, кто Вы:
робот инопланетянин человек

Внимание! Время в таблицах - всемирное. Для получения местного времени необходимо прибавить поправку, которая в Ernage равна 1 ч.

Смотрите также архив погоды в соседних городах и на ближайших метеорологических станциях:

Погода в Beauvechain (Бельгия) (11 км)
Погода в Uccle (Бельгия) (27 км)
Погода в Charleroi (Бельгия) (28 км)
Погода в Bruxelles (Бельгия) (28 км)
Погода в Schaffen (Бельгия) (46 км)
Погода в Florennes (Бельгия) (49 км)
Погода в Bierset (Бельгия) (54 км)
Погода в Antwerpen (Бельгия) (61 км)
Погода в Diepenbeek (Бельгия) (61 км)
Погода в Chievres (Бельгия) (61 км)

Пояснения к столбцам:

Ветер - указаны скорость ветра в м/с - средняя за 10 мин, порывы в срок и между сроками (в фигурных скобках) и направление, откуда дует ветер: С - северный, СВ - северо-восточный, В - восточный, ЮВ - юго-восточный, Ю - южный, ЮЗ - юго-западный, З - западный, СЗ - северо-западный.
Видимость - горизонтальная дальность видимости в метрах или километрах. При видимости от 1 до 10 км при отсутствии осадков обычно наблюдается дымка, при ухудшении видимости до 1 км и менее - туман. В сухую погоду видимость может ухудшаться дымом, пылью или мглою.
Явления - указаны атмосферные явления, наблюдавшиеся в срок или в последний час перед сроком; фигурными скобками обозначены явления, наблюдавшиеся между сроками (за 1-3 часа до срока); квадратными скобками обозначены град или гололедные отложения с указанием их диаметра в мм.
Облачность - указаны через наклонную черту общая и нижняя облачность в баллах и высота нижней границы облаков в метрах; квадратными скобками обозначены формы облаков: Ci - перистые, Cs - перисто-слоистые, Cc - перисто-кучевые, Ac - высококучевые, As - высокослоистые, Sc - слоисто-кучевые, Ns - слоисто-дождевые, Cu - кучевые, Cb - кучево-дождевые. Подробнее классификацию облаков см. в Атласе облаков (PDF).
T - Температура воздуха - температура, измеренная на высоте 2 м над землей.
Td - Температура точки росы - температура, при понижении до которой содержащийся в воздухе водяной пар достигнет насыщения.
f - Относительная влажность воздуха - влажноcть воздуха, измеренная на высоте 2 м над землей.
Te - Эффективная температура - температура, которую ощущает одетый по сезону человек в тени. Характеристика душности погоды. При расчете учитывается влияние влажности воздуха и скорости ветра на теплоощущения человека.
Tes - Эффективная температура на солнце - температура, которую ощущает человек, с поправкой на солнечный нагрев. Характеристика знойности погоды. Зависит от высоты солнца над горизонтом, облачности и скорости ветра. Ночью, в пасмурную погоду, а также при ветре 12 м/с и более поправка равна нулю.
P - Атмосферное давление - приведенное к уровню моря атмосферное давление.
Po - Атмосферное давление - измеренное на уровне метеостанции атмосферное давление.
Tmin - Минимальная температура - минимум температуры воздуха на высоте 2 м над землей.
Tmax - Максимальная температура - максимум температуры воздуха на высоте 2 м над землей.
R - Количество осадков - Количество выпавших осадков за период времени, мм. При наведении курсора мыши на число - период времени, за который выпало указанное количество осадков.
R24 - Количество осадков - Количество выпавших осадков за 24 часа, мм.
S - Снежный покров - Высота снежного покрова, см. При наведении курсора мыши на число - состояние снежного покрова и степень покрытия местности в баллах.